sat.trackr.live / text

‹ back to catalog

STARLINK-1335

NORAD 45581 · 2020-025BC

PAYLOAD ACTIVE UNKNOWN

§ Identity

Operator
Country
US
Launch date
2020-04-22
Launch site
AFETR
Launch vehicle
Mass (kg)
RCS (m²)

Purposes: comms

External: N2YO · Heavens-Above · Gunter

§ Orbital elements

Epoch: 2026-09-19T13:16:19.175808Z

Period
93.11 min
Inclination
53.1495°
Eccentricity
0.0005945
Mean motion
15.46618981 rev/d
Perigee alt
422.6 km
Apogee alt
430.7 km
Semi-major
6,804.8 km
B*
1.1113e-3
RAAN
244.4657°
Arg perigee
72.7804°
Mean anomaly
287.3854°
Rev number
35,535

§ Raw data

STARLINK-13351 45581U 20025BC  26262.55299972  .00056278  00000+0  11113-2 0  99942 45581  53.1495 244.4657 0005945  72.7804 287.3854 15.46618981355352

JSON: /api/v1/satellites/45581 · /tle

For live sub-satellite position, see the globe view (requires WebGL).

§ Visibility from observer

Set your observer location to see the next 7 days of passes ≥ 10°. The values pass through the URL so the page stays shareable.

No JS? Fill the form by hand. The geolocation button needs JavaScript.